This demonstration page uses our WeatherBlox Daily Observations layout. Learn more.

36.19886, -115.1175

Hourly Observations for July 8, 2018

Temp ( °F °C ) Dew Point ( °F °C ) Humidity (%) Winds ( mph kmh ) Pressure ( in mb ) Visibility ( mi km ) Precip ( " mm )
12:53 am 00:53 Clear 92 33.3 51 10.6 25 25 ENE 6 9 29.83 1010 10 16.09344 0 0
1:29 am 01:29 Clear with Nearby Thunderstorms 91 32.8 53 11.7 27 27 N 3 6 29.74 1007 10 16.09344 0 0
1:44 am 01:44 Clear 90 32.2 53 11.7 28 28 N 5 7 29.71 1006 10 16.09344 0 0
1:53 am 01:53 Clear 90 32.2 53 11.7 28 28 NNE 5 7 29.83 1010 10 16.09344 0 0
2:53 am 02:53 Clear 88 31.1 53 11.7 30 30 NE 5 7 29.83 1010 10 16.09344 0 0
3:53 am 03:53 Clear 87 30.6 53 11.7 31 31 Calm 29.85 1011 10 16.09344 0 0
4:53 am 04:53 Clear 86 30 53 11.7 32 32 NW 3 6 29.85 1011 10 16.09344 0 0
5:53 am 05:53 Sunny 85 29.4 53 11.7 33 33 NW 5 7 29.88 1012 10 16.09344 0 0
6:53 am 06:53 Sunny 85 29.4 54 12.2 35 35 NNW 3 6 29.88 1012 10 16.09344 0 0
7:53 am 07:53 Sunny 91 32.8 54 12.2 28 28 Calm 29.88 1012 10 16.09344 0 0
8:53 am 08:53 Sunny 96 35.6 52 11.1 23 23 E 6 9 29.91 1013 10 16.09344 0 0
9:53 am 09:53 Sunny 97 36.1 52 11.1 22 22 N 3 6 29.88 1012 10 16.09344 0 0
10:53 am 10:53 Sunny 100 37.8 51 10.6 19 19 SE 9 15 29.88 1012 10 16.09344 0 0
11:53 am 11:53 Sunny 102 38.9 50 10 17 17 SSW 5 7 29.85 1011 10 16.09344 0 0
12:53 pm 12:53 Sunny 104 40 50 10 16 16 N 3 6 29.85 1011 10 16.09344 0 0
1:53 pm 13:53 Sunny 107 41.7 50 10 15 15 ESE 7 11 29.83 1010 10 16.09344 0 0
2:19 pm 14:19 Sunny 103 39.4 51 10.6 18 18 S 23 37 29.68 1005 10 16.09344 0 0
2:53 pm 14:53 Sunny 101 38.3 51 10.6 19 19 SSW 20 31 29.83 1010 10 16.09344 0 0
3:53 pm 15:53 Sunny 103 39.4 49 9.4 16 16 W 10 17 29.8 1009 10 16.09344 0 0
4:53 pm 16:53 Sunny 103 39.4 50 10 17 17 Calm 29.8 1009 10 16.09344 0 0
5:53 pm 17:53 Sunny 103 39.4 49 9.4 16 16 ESE 5 7 29.77 1008 10 16.09344 0 0
6:53 pm 18:53 Sunny 104 40 46 7.8 14 14 S 7 11 29.8 1009 10 16.09344 0 0
7:53 pm 19:53 Sunny 103 39.4 46 7.8 15 15 SE 5 7 29.77 1008 10 16.09344 0 0
8:53 pm 20:53 Clear 102 38.9 49 9.4 17 17 SSW 8 13 29.8 1009 10 16.09344 0 0
9:11 pm 21:11 Clear with Nearby Thunderstorms 101 38.3 49 9.4 17 17 SSW 7 11 29.65 1004 10 16.09344 0 0
9:26 pm 21:26 Clear 100 37.8 50 10 18 18 S 8 13 29.68 1005 10 16.09344 0 0
9:53 pm 21:53 Clear 99 37.2 50 10 19 19 SSW 7 11 29.8 1009 10 16.09344 0 0
10:11 pm 22:11 Clear with Nearby Thunderstorms 99 37.2 51 10.6 20 20 SSW 7 11 29.68 1005 10 16.09344 0 0
10:35 pm 22:35 Clear 98 36.7 51 10.6 20 20 SW 6 9 29.68 1005 10 16.09344 0 0
10:53 pm 22:53 Clear 97 36.1 51 10.6 21 21 SSW 5 7 29.83 1010 10 16.09344 0 0
11:11 pm 23:11 Clear with Thunderstorms 97 36.1 51 10.6 21 21 SW 3 6 29.68 1005 10 16.09344 0 0
11:29 pm 23:29 Clear 96 35.6 51 10.6 22 22 S 3 6 29.68 1005 10 16.09344 0 0
11:53 pm 23:53 Clear 93 33.9 51 10.6 24 24 SE 6 9 29.83 1010 10 16.09344 0 0

Powered by AerisWeather